Terminal Aerodrome Forecast
Issued by NWS

Home | Current Version | Previous Version | Text Only | Print | Product List | Glossary On
Versions: 1 2 3 4 5 6 7 8 9 10 11 12
000
FTUS45 KREV 310500
TAFMMH
TAF
KMMH 310527Z 3106/0106 34008KT P6SM SKC
     FM311000 VRB03KT P6SM SKC
     FM311900 26010KT P6SM SKC
     FM010100 30005KT P6SM SKC
      AMD NOT SKED 3106/3114=

USA.gov is the U.S. government's official web portal to all federal, state and local government web resources and services.